Location: Bronschhofen
(47.4788°N, 9.0353°E)
Time: 19:03:04
(UTC+00:00)

Meteor 1-24 Rocket - Pass Details

Date: 20 May 2022
Orbit: 790 x 927 km, 81.2° (Epoch: 06 July)

Event Time Altitude Azimuth Distance (km) Brightness Sun altitude
Exits shadow 01:31:37 15° 169° (S) 2,182 5.4 -16.4°
Maximum altitude 01:36:15 55° 95° (E) 1,023 4.3 -16.0°
Drops below altitude 10° 01:41:40 10° 19° (NNE) 2,453 7.4 -15.5°
Sets 01:44:04 0° 16° (NNE) 3,372 8.3 -15.3°
